Home   Weather   Freehold   Past weeks

Flag for USA Past Weather in Freehold, New Jersey, USA — Yesterday and Last 2 Weeks

Now
63 °F

Low clouds.


Feels Like: 63 °F
Forecast: 55 / 70 °F
Wind: 17 mph from Northeast

Location: Belmar-Farmdale

Current Time: Sep 28, 2016 at 4:35:54 PM

Latest Report: Sep 28, 2016 at 3:56 PM


Visibility: 9 mi

Pressure: 30.12 "Hg

Humidity: 90%

Dew Point: 60 °F

Location of FreeholdLocation

Past Weather in Freehold — Graph

°F

Freehold Temperature Yesterday

Maximum temperature yesterday: 73 °F (at 2:56 PM)
Minimum temperature yesterday: 60 °F (at 11:56 PM)
Average temperature yesterday: 67 °F

High & Low Weather Summary for the Past Weeks

 TemperatureHumidityPressure
High90 °F (Sep 14, 3:56 PM)100% (Sep 19, 7:04 AM)30.36 "Hg (Sep 19, 7:04 AM)
Low47 °F (Sep 25, 6:56 AM)33% (Sep 23, 2:56 PM)29.91 "Hg (Sep 27, 3:56 PM)
Average68 °F77%30.13 "Hg
* Reported Sep 13 2:56 PM — Sep 28 2:56 PM, Freehold, Weather by CustomWeather, © 2016

Note: Actual official high and low records may vary slightly from our data, if they occured in-between our weather recording intervals... More about our weather records

Advertising

Freehold Weather History for the Previous 24 Hours

Scroll right to see more
 ConditionsComfort  
Time TempWeatherWind HumidityBarometerVisibility
2:56 PM
Wed, Sep 28
65 °FLight rain. Overcast.18 mph87%30.12 "Hg10 mi
1:56 PM67 °FMostly cloudy.16 mph85%30.11 "Hg9 mi
12:56 PM68 °FMostly cloudy.14 mph84%30.12 "Hg10 mi
11:56 AM68 °FOvercast.18 mph82%30.11 "Hg10 mi
10:56 AM68 °FOvercast.14 mph84%30.09 "Hg10 mi
9:56 AM69 °FOvercast.16 mph79%30.08 "Hg10 mi
8:56 AM67 °FPartly sunny.12 mph90%30.07 "Hg9 mi
7:56 AM61 °FFog.6 mph97%30.06 "Hg4 mi
6:56 AM59 °FFog.5 mph96%30.05 "Hg3 mi
5:56 AM58 °FFog.5 mph100%30.04 "Hg5 mi
4:56 AM57 °FClear.3 mph96%30.03 "Hg7 mi
3:56 AM59 °FPassing clouds.No wind96%30.03 "Hg9 mi
2:56 AM57 °FClear.No wind96%30.02 "Hg8 mi
1:56 AM58 °FPassing clouds.3 mph93%30.01 "Hg10 mi
12:56 AM60 °FClear.No wind96%30.01 "Hg10 mi
11:56 PM
Tue, Sep 27
60 °FClear.No wind96%30.00 "Hg10 mi
10:56 PM62 °FClear.3 mph96%29.98 "Hg10 mi
9:56 PM62 °FClear.No wind96%29.98 "Hg10 mi
8:56 PM65 °FPassing clouds.6 mph91%29.97 "Hg10 mi
7:56 PM66 °FPassing clouds.No wind90%29.95 "Hg10 mi
6:56 PM68 °FOvercast.5 mph84%29.93 "Hg10 mi
5:56 PM72 °FOvercast.5 mph66%29.92 "Hg10 mi
4:56 PM73 °FPassing clouds.5 mph62%29.91 "Hg10 mi
Weather by CustomWeather, © 2016

See weather overviewHow to use our weather pages